Wakefield, VA

10:05 PM EST on November 14, 2019 (GMT -0500)
Wakefield Municipal

Weather History for KAKQ - October, 2019

Change the Weather History Date:

Sunday, October 13, 2019

  Actual Average (WUND) Record (WUND)
Temperature  
Mean Temperature 68 °F -  
Max Temperature 78 °F - - (-1)
Min Temperature 60 °F - - (-1)
Cooling Degree Days 4    
Growing Degree Days 18 (Base 50)    
Moisture  
Dew Point 62 °F    
Average Humidity 84    
Maximum Humidity 94    
Minimum Humidity 60    
Precipitation  
Precipitation 0.30 in - - ()
Sea Level Pressure  
Sea Level Pressure 30.02 in    
Wind  
Wind Speed 2 mph (NE)    
Max Wind Speed 8 mph    
Max Gust Speed -    
Visibility 8 miles    
Events Rain    
Averages and records for this station are not official NWS values.
T = Trace of Precipitation, MM = Missing Value Source: NWS Daily Summary

Daily Weather History Graph

Daily Weather History Graph

Search for Another Location

Airport or City:

Astronomy

Oct. 13, 2019 Rise Set
Actual Time 7:13 AM EDT 6:34 PM EDT
Civil Twilight 6:47 AM EDT 7:00 PM EDT
Nautical Twilight 6:17 AM EDT 7:30 PM EDT
Astronomical Twilight 5:47 AM EDT 8:00 PM EDT
Moon 6:54 PM EDT (10/13) 6:47 AM EDT (10/13)
Length of Visible Light 12h 12m
Length of Day
11h 20m
Full, 100% of the Moon is Illuminated
Oct 13
Full
Oct 13
Full
Oct 21
Last Quarter
Oct 27
New
Nov 4
First Quarter

Hourly Weather History & Observations

Time (EDT) Temp. Dew Point Humidity Pressure Visibility Wind Dir Wind Speed Gust Speed Precip Events Conditions
12:54 AM 63.0 °F 57.0 °F 81% 30.01 in 10.0 mi Calm Calm - N/A   Mostly Cloudy
1:54 AM 60.1 °F 55.9 °F 86% 30.01 in 10.0 mi Calm Calm - N/A   Partly Cloudy
2:54 AM 61.0 °F 57.9 °F 90% 30.01 in 10.0 mi Calm Calm - N/A   Mostly Cloudy
3:54 AM 63.0 °F 60.1 °F 90% 30.01 in 10.0 mi Calm Calm - N/A   Mostly Cloudy
4:37 AM 63.0 °F 60.1 °F 90% 30.02 in 10.0 mi Calm Calm - N/A   Overcast
4:46 AM 62.6 °F 60.8 °F 94% 30.02 in 10.0 mi Variable 3.5 mph - N/A   Overcast
4:54 AM 63.0 °F 61.0 °F 93% 30.02 in 10.0 mi NE 3.5 mph - N/A   Overcast
5:30 AM 64.0 °F 61.0 °F 90% 30.03 in 10.0 mi NE 5.8 mph - N/A   Overcast
5:54 AM 64.0 °F 61.0 °F 90% 30.04 in 10.0 mi NNE 3.5 mph - N/A   Overcast
6:54 AM 64.0 °F 59.0 °F 84% 30.06 in 10.0 mi NNW 4.6 mph - N/A   Overcast
7:54 AM 63.0 °F 55.9 °F 78% 30.07 in 10.0 mi Calm Calm - N/A   Overcast
8:54 AM 64.0 °F 55.9 °F 75% 30.08 in 10.0 mi Variable 3.5 mph - N/A   Overcast
9:54 AM 66.9 °F 57.9 °F 73% 30.08 in 10.0 mi Variable 4.6 mph - N/A   Overcast
10:29 AM 71.1 °F 61.0 °F 70% 30.07 in 10.0 mi ENE 8.1 mph - N/A   Scattered Clouds
11:54 AM 73.9 °F 62.1 °F 66% 30.06 in 10.0 mi SE 3.5 mph - N/A   Clear
12:54 PM 77.0 °F 62.1 °F 60% 30.04 in 10.0 mi Calm Calm - N/A   Clear
1:54 PM 77.0 °F 62.1 °F 60% 30.01 in 10.0 mi SW 4.6 mph - N/A   Partly Cloudy
2:54 PM 77.0 °F 62.1 °F 60% 30.01 in 10.0 mi WSW 5.8 mph - N/A   Scattered Clouds
3:54 PM 75.9 °F 61.0 °F 60% 30.01 in 10.0 mi SW 5.8 mph - N/A   Mostly Cloudy
4:54 PM 73.0 °F 63.0 °F 71% 30.01 in 8.0 mi SSW 3.5 mph - 0.00 in Rain Light Rain
5:54 PM 70.0 °F 66.0 °F 87% 29.99 in 9.0 mi Calm Calm - 0.01 in Rain Light Rain
6:54 PM 68.0 °F 64.9 °F 90% 30.01 in 5.0 mi Calm Calm - 0.00 in Rain Light Rain
7:54 PM 66.9 °F 64.9 °F 93% 30.02 in 5.0 mi Calm Calm - 0.05 in Rain Rain
8:12 PM 66.9 °F 64.9 °F 93% 30.03 in 2.0 mi Calm Calm - 0.04 in Rain Heavy Rain
8:54 PM 66.9 °F 64.9 °F 93% 30.01 in 6.0 mi Calm Calm - 0.09 in Rain Light Rain
9:54 PM 66.0 °F 64.0 °F 93% 30.01 in 2.5 mi Calm Calm - 0.01 in Rain Heavy Rain
10:04 PM 66.0 °F 64.0 °F 93% 30.01 in 1.8 mi Calm Calm - 0.06 in Rain Light Rain
10:08 PM 66.0 °F 64.0 °F 93% 30.01 in 3.0 mi Calm Calm - 0.06 in Rain Light Rain
10:29 PM 66.0 °F 64.0 °F 93% 30.01 in 2.5 mi Calm Calm - 0.10 in Rain Rain
10:37 PM 66.0 °F 64.0 °F 93% 30.01 in 5.0 mi Calm Calm - 0.10 in Rain Light Rain
10:54 PM 66.0 °F 64.0 °F 93% 30.01 in 7.0 mi Calm Calm - 0.12 in Rain Light Rain
11:39 PM 66.2 °F 64.4 °F 94% 30.01 in 3.0 mi Calm Calm - N/A Rain Light Rain
11:54 PM 66.9 °F 64.0 °F 90% 30.00 in 8.0 mi Calm Calm - 0.02 in Rain Light Rain